| time (UTC) | temp F | wind direction | speed MPH | gust MPH | rain 1hr in | rain 24hr in | rain mn in | humidity % | barometer mb |
| 20260831003031 | 61 | 245 | 10.0 | 18.0 | 0.00 | 0.01 | 0.00 | 57 | 1005.7 |
| 20260831001520 | 61 | 287 | 12.0 | 19.0 | 0.00 | 0.01 | 0.00 | 57 | 1005.6 |
| 20260831000021 | 61 | 251 | 10.0 | 21.0 | 0.00 | 0.01 | 0.00 | 58 | 1005.6 |
| 20260830234533 | 61 | 265 | 10.0 | 17.0 | 0.00 | 0.01 | 0.00 | 56 | 1005.4 |
| 20260830233119 | 63 | 211 | 7.0 | 12.0 | 0.00 | 0.01 | 0.00 | 51 | 1005.1 |
| 20260830231519 | 65 | 152 | 3.0 | 7.0 | 0.00 | 0.01 | 0.00 | 52 | 1005.1 |
| 20260830230020 | 65 | 141 | 5.0 | 10.0 | 0.00 | 0.01 | 0.00 | 54 | 1005.0 |
| 20260830224517 | 66 | 170 | 2.0 | 6.0 | 0.00 | 0.01 | 0.00 | 54 | 1005.3 |
| 20260830223016 | 61 | 159 | 2.0 | 7.0 | 0.00 | 0.01 | 0.00 | 65 | 1005.6 |
| 20260830221530 | 60 | 163 | 6.0 | 12.0 | 0.00 | 0.01 | 0.00 | 59 | 1005.8 |
| 20260830220016 | 64 | 247 | 14.0 | 21.0 | 0.00 | 0.01 | 0.00 | 47 | 1005.7 |
| 20260830214513 | 65 | 261 | 11.0 | 19.0 | 0.00 | 0.01 | 0.00 | 46 | 1005.5 |
| 20260830213014 | 67 | 265 | 10.0 | 17.0 | 0.00 | 0.01 | 0.00 | 39 | 1005.3 |
| 20260830211515 | 67 | 268 | 9.0 | 16.0 | 0.00 | 0.01 | 0.00 | 37 | 1005.1 |
| 20260830210012 | 68 | 224 | 8.0 | 19.0 | 0.00 | 0.01 | 0.00 | 40 | 1005.1 |
| 20260830204512 | 68 | 225 | 9.0 | 16.0 | 0.00 | 0.01 | 0.00 | 39 | 1005.2 |
| 20260830203010 | 70 | 229 | 14.0 | 21.0 | 0.00 | 0.01 | 0.00 | 37 | 1005.1 |
| 20260830201508 | 67 | 248 | 12.0 | 17.0 | 0.00 | 0.01 | 0.00 | 39 | 1005.2 |
| 20260830200005 | 68 | 270 | 10.0 | 17.0 | 0.00 | 0.01 | 0.00 | 38 | 1005.4 |
| 20260830194504 | 68 | 242 | 10.0 | 19.0 | 0.00 | 0.01 | 0.00 | 40 | 1005.4 |
| 20260830193002 | 67 | 199 | 5.0 | 10.0 | 0.00 | 0.01 | 0.00 | 41 | 1005.6 |
| 20260830191659 | 65 | 216 | 1.0 | 8.0 | 0.00 | 0.01 | 0.00 | 41 | 1005.8 |
| 20260830190109 | 66 | 302 | 5.0 | 10.0 | 0.00 | 0.01 | 0.00 | 41 | 1005.9 |
| 20260830184600 | 65 | 249 | 6.0 | 12.0 | 0.00 | 0.01 | 0.00 | 46 | 1006.0 |
| 20260830183053 | 65 | 234 | 4.0 | 9.0 | 0.00 | 0.01 | 0.00 | 46 | 1006.0 |
| 20260830181553 | 65 | 234 | 6.0 | 12.0 | 0.00 | 0.01 | 0.00 | 45 | 1006.1 |
| 20260830180055 | 65 | 257 | 8.0 | 14.0 | 0.00 | 0.01 | 0.00 | 45 | 1006.2 |
| 20260830174557 | 65 | 265 | 8.0 | 15.0 | 0.00 | 0.01 | 0.00 | 46 | 1006.3 |
| 20260830173109 | 64 | 237 | 6.0 | 11.0 | 0.00 | 0.01 | 0.00 | 48 | 1006.3 |
| 20260830171553 | 62 | 211 | 6.0 | 14.0 | 0.00 | 0.01 | 0.00 | 49 | 1006.5 |
| 20260830170048 | 64 | 207 | 10.0 | 15.0 | 0.00 | 0.01 | 0.00 | 47 | 1006.3 |
| 20260830164545 | 62 | 232 | 8.0 | 18.0 | 0.00 | 0.01 | 0.00 | 50 | 1006.6 |
| 20260830163041 | 60 | 221 | 7.0 | 12.0 | 0.00 | 0.01 | 0.00 | 58 | 1006.8 |
| 20260830161541 | 60 | 213 | 6.0 | 16.0 | 0.00 | 0.01 | 0.00 | 58 | 1006.7 |
| 20260830160039 | 60 | 202 | 6.0 | 10.0 | 0.00 | 0.01 | 0.00 | 58 | 1007.0 |
| 20260830154535 | 59 | 191 | 3.0 | 10.0 | 0.00 | 0.01 | 0.00 | 61 | 1006.9 |
| 20260830153035 | 59 | 178 | 3.0 | 8.0 | 0.00 | 0.01 | 0.00 | 62 | 1006.9 |
| 20260830151527 | 58 | 184 | 5.0 | 11.0 | 0.00 | 0.01 | 0.00 | 64 | 1007.1 |
| 20260830150023 | 56 | 202 | 3.0 | 8.0 | 0.00 | 0.01 | 0.00 | 74 | 1007.3 |
| 20260830144519 | 54 | 204 | 4.0 | 8.0 | 0.00 | 0.01 | 0.00 | 81 | 1007.3 |
| 20260830143017 | 52 | 204 | 3.0 | 6.0 | 0.00 | 0.01 | 0.00 | 83 | 1007.7 |
| 20260830141514 | 50 | 204 | 2.0 | 5.0 | 0.00 | 0.01 | 0.00 | 83 | 1007.7 |
| 20260830140023 | 50 | 204 | 3.0 | 5.0 | 0.00 | 0.01 | 0.00 | 82 | 1007.8 |
| 20260830134512 | 49 | 204 | 2.0 | 5.0 | 0.00 | 0.01 | 0.00 | 83 | 1007.9 |
| 20260830133023 | 49 | 204 | 3.0 | 5.0 | 0.00 | 0.01 | 0.00 | 82 | 1007.7 |
| 20260830131506 | 50 | 204 | 3.0 | 6.0 | 0.00 | 0.01 | 0.00 | 80 | 1007.7 |
| 20260830130002 | 51 | 204 | 1.0 | 5.0 | 0.00 | 0.01 | 0.00 | 80 | 1007.7 |
| 20260830124600 | 51 | 205 | 0.0 | 3.0 | 0.00 | 0.01 | 0.00 | 79 | 1007.5 |
| 20260830123103 | 51 | 204 | 2.0 | 6.0 | 0.00 | 0.01 | 0.00 | 80 | 1007.9 |
| 20260830121556 | 51 | 199 | 3.0 | 6.0 | 0.00 | 0.01 | 0.00 | 81 | 1007.8 |
| 20260830120055 | 52 | 198 | 4.0 | 8.0 | 0.00 | 0.01 | 0.00 | 79 | 1007.5 |
| 20260830114559 | 52 | 202 | 6.0 | 9.0 | 0.00 | 0.01 | 0.00 | 82 | 1007.6 |
| 20260830113051 | 52 | 198 | 4.0 | 6.0 | 0.00 | 0.01 | 0.00 | 83 | 1007.4 |
| 20260830111549 | 53 | 198 | 5.0 | 9.0 | 0.00 | 0.01 | 0.00 | 83 | 1007.5 |
| 20260830110047 | 53 | 198 | 4.0 | 8.0 | 0.00 | 0.01 | 0.00 | 84 | 1007.4 |
| 20260830104548 | 53 | 196 | 3.0 | 5.0 | 0.00 | 0.01 | 0.00 | 86 | 1006.9 |
| 20260830103043 | 53 | 196 | 1.0 | 6.0 | 0.00 | 0.01 | 0.00 | 89 | 1006.6 |
| 20260830101542 | 53 | 196 | 3.0 | 5.0 | 0.00 | 0.01 | 0.00 | 90 | 1006.9 |
| 20260830100042 | 54 | 196 | 3.0 | 6.0 | 0.00 | 0.01 | 0.00 | 91 | 1007.0 |
| 20260830094541 | 54 | 196 | 4.0 | 8.0 | 0.00 | 0.01 | 0.00 | 92 | 1007.1 |
| 20260830093043 | 54 | 195 | 5.0 | 7.0 | 0.00 | 0.01 | 0.00 | 93 | 1007.1 |
| 20260830091540 | 55 | 194 | 3.0 | 8.0 | 0.00 | 0.01 | 0.00 | 93 | 1007.0 |
| 20260830090039 | 54 | 193 | 5.0 | 9.0 | 0.00 | 0.01 | 0.00 | 94 | 1007.0 |
| 20260830084542 | 53 | 187 | 5.0 | 9.0 | 0.00 | 0.01 | 0.00 | 93 | 1006.7 |
| 20260830083034 | 53 | 186 | 4.0 | 6.0 | 0.00 | 0.01 | 0.00 | 93 | 1006.4 |
| 20260830081532 | 53 | 186 | 2.0 | 5.0 | 0.00 | 0.01 | 0.00 | 93 | 1005.9 |
| 20260830080032 | 53 | 185 | 4.0 | 6.0 | 0.00 | 0.01 | 0.00 | 93 | 1005.8 |
| 20260830074530 | 53 | 185 | 3.0 | 5.0 | 0.00 | 0.01 | 0.00 | 92 | 1005.9 |
| 20260830073031 | 55 | 185 | 2.0 | 6.0 | 0.00 | 0.01 | 0.00 | 92 | 1005.9 |
| 20260830071528 | 55 | 182 | 3.0 | 8.0 | 0.00 | 0.01 | 0.00 | 93 | 1006.1 |
| 20260830070026 | 55 | 162 | 5.0 | 9.0 | 0.00 | 0.01 | 0.00 | 93 | 1006.0 |
| 20260830064525 | 54 | 94 | 3.0 | 6.0 | 0.00 | 0.01 | 0.00 | 92 | 1006.0 |
| 20260830063033 | 54 | 58 | 2.0 | 4.0 | 0.00 | 0.01 | 0.00 | 92 | 1006.1 |
| 20260830061522 | 54 | 55 | 2.0 | 5.0 | 0.00 | 0.01 | 0.00 | 92 | 1006.1 |
| 20260830060019 | 53 | 47 | 2.0 | 4.0 | 0.00 | 0.01 | 0.00 | 90 | 1006.1 |
| 20260830054517 | 55 | 44 | 1.0 | 4.0 | 0.00 | 0.01 | 0.01 | 90 | 1006.4 |
| 20260830053017 | 56 | 42 | 0.0 | 0.0 | 0.00 | 0.01 | 0.01 | 90 | 1006.5 |
| 20260830051518 | 56 | 42 | 0.0 | 0.0 | 0.00 | 0.01 | 0.01 | 90 | 1006.7 |
| 20260830050015 | 57 | 41 | 0.0 | 0.0 | 0.00 | 0.01 | 0.01 | 90 | 1006.7 |
| 20260830044515 | 57 | 41 | 0.0 | 3.0 | 0.00 | 0.01 | 0.01 | 89 | 1006.6 |
| 20260830043015 | 57 | 41 | 1.0 | 3.0 | 0.00 | 0.01 | 0.01 | 88 | 1006.6 |
| 20260830041514 | 58 | 41 | 1.0 | 4.0 | 0.00 | 0.01 | 0.01 | 86 | 1006.7 |
| 20260830040013 | 59 | 42 | 1.0 | 5.0 | 0.00 | 0.01 | 0.01 | 85 | 1006.8 |
| 20260830034513 | 59 | 51 | 0.0 | 2.0 | 0.00 | 0.01 | 0.01 | 83 | 1006.8 |
| 20260830033012 | 60 | 51 | 2.0 | 5.0 | 0.00 | 0.01 | 0.01 | 83 | 1006.7 |
| 20260830031512 | 60 | 113 | 3.0 | 12.0 | 0.00 | 0.01 | 0.01 | 84 | 1006.3 |
| 20260830030011 | 60 | 103 | 9.0 | 12.0 | 0.00 | 0.01 | 0.01 | 85 | 1006.2 |
| 20260830024511 | 60 | 145 | 2.0 | 7.0 | 0.01 | 0.01 | 0.01 | 83 | 1007.6 |
| 20260830023010 | 60 | 149 | 6.0 | 10.0 | 0.01 | 0.01 | 0.01 | 81 | 1007.5 |
| 20260830021524 | 60 | 155 | 9.0 | 15.0 | 0.01 | 0.01 | 0.01 | 80 | 1007.6 |
| 20260830020008 | 61 | 167 | 10.0 | 12.0 | 0.01 | 0.01 | 0.01 | 80 | 1007.7 |
| 20260830014513 | 64 | 184 | 8.0 | 15.0 | 0.00 | 0.00 | 0.00 | 73 | 1007.7 |
| 20260830013008 | 65 | 214 | 7.0 | 14.0 | 0.00 | 0.00 | 0.00 | 65 | 1006.8 |
| 20260830011507 | 65 | 251 | 7.0 | 13.0 | 0.00 | 0.00 | 0.00 | 64 | 1006.2 |
| 20260830010009 | 66 | 242 | 9.0 | 16.0 | 0.00 | 0.00 | 0.00 | 62 | 1006.1 |
| 20260830004506 | 67 | 248 | 13.0 | 19.0 | 0.00 | 0.00 | 0.00 | 58 | 1006.1 |